Tracking 29892 objects as of 21-Nov-2024
HD Live streaming from Space Station
objects crossing your sky now

DELTA 1 DEB

Track DELTA 1 DEB now!
10-day predictions


NORAD ID: 26614
Int'l Code: 1978-026HU
Perigee: 619.8 km
Apogee: 704.5 km
Inclination: 98.7 °
Period: 97.8 minutes
Semi major axis: 7033 km
RCS: 0.049 m2 (small)
Launch date: March 5, 1978
Source: United States (US)
Launch site: AIR FORCE WESTERN TEST RANGE (AFWTR)

Note: This is SATELLITE DEBRIS
Your satellite tracking list
Your tracking list is empty




NASA's NSSDC Master Catalog

Two Line Element Set (TLE):
1 26614U 78026HU  24324.95441095  .00048652  00000-0  75127-2 0  9993
2 26614  98.7365 146.5287 0060213 314.6091 187.7568 14.71884151252346
Source of the keplerian elements: AFSPC